Year,Month,Day,Hour,Minute,Value (Times are PST for temperature in C)
2012,03,26,13,17,8.30
2012,03,26,13,18,8.30
2012,03,26,13,19,8.30
2012,03,26,13,20,8.30
2012,03,26,13,21,8.40
2012,03,26,13,22,8.40
2012,03,26,13,23,8.40
2012,03,26,13,24,8.30
2012,03,26,13,25,8.30
2012,03,26,13,26,8.30
2012,03,26,13,27,8.30
2012,03,26,13,28,8.30
2012,03,26,13,29,8.40
2012,03,26,13,30,8.40
2012,03,26,13,31,8.30
2012,03,26,13,32,8.30
2012,03,26,13,33,8.30
2012,03,26,13,34,8.30
2012,03,26,13,35,8.30
2012,03,26,13,36,8.40
2012,03,26,13,37,8.30
2012,03,26,13,38,8.30
2012,03,26,13,39,8.40
2012,03,26,13,40,8.30
2012,03,26,13,41,8.30
2012,03,26,13,42,8.30
2012,03,26,13,43,8.30
2012,03,26,13,44,8.30
2012,03,26,13,45,8.30
2012,03,26,13,46,8.30
2012,03,26,13,47,8.30
2012,03,26,13,48,8.30
2012,03,26,13,49,8.30
2012,03,26,13,50,8.30
2012,03,26,13,51,8.30
2012,03,26,13,52,8.30
2012,03,26,13,53,8.30
2012,03,26,13,54,8.30
2012,03,26,13,55,8.30
2012,03,26,13,56,8.20
2012,03,26,13,57,8.20
2012,03,26,13,58,8.20
2012,03,26,13,59,8.20
2012,03,26,14,00,8.20
2012,03,26,14,01,8.20
2012,03,26,14,02,8.30
2012,03,26,14,03,8.30
2012,03,26,14,04,8.40
2012,03,26,14,05,8.40
2012,03,26,14,06,8.30
2012,03,26,14,07,8.30
2012,03,26,14,08,8.30
2012,03,26,14,09,8.30
2012,03,26,14,10,8.30
2012,03,26,14,11,8.30
2012,03,26,14,12,8.30
2012,03,26,14,13,8.30
2012,03,26,14,14,8.30
2012,03,26,14,15,8.30
2012,03,26,14,16,8.20
2012,03,26,14,17,8.20
2012,03,26,14,18,8.20
2012,03,26,14,19,8.20
2012,03,26,14,20,8.20
2012,03,26,14,21,8.20
2012,03,26,14,22,8.10
2012,03,26,14,23,8.10
2012,03,26,14,24,8.20
2012,03,26,14,25,8.20
2012,03,26,14,26,8.20
2012,03,26,14,27,8.20
2012,03,26,14,28,8.20
2012,03,26,14,29,8.30
2012,03,26,14,30,8.30
2012,03,26,14,31,8.30
2012,03,26,14,32,8.30
2012,03,26,14,33,8.30
2012,03,26,14,34,8.40
2012,03,26,14,35,8.40
2012,03,26,14,36,8.50
2012,03,26,14,37,8.60
2012,03,26,14,38,8.60
2012,03,26,14,39,8.70
2012,03,26,14,40,8.70
2012,03,26,14,41,8.80
2012,03,26,14,42,8.90
2012,03,26,14,43,8.90
2012,03,26,14,44,8.90
2012,03,26,14,45,8.90
2012,03,26,14,46,8.80
2012,03,26,14,47,8.80
2012,03,26,14,48,8.80
2012,03,26,14,49,8.90
2012,03,26,14,50,8.90
2012,03,26,14,51,8.90
2012,03,26,14,52,8.90
2012,03,26,14,53,8.90
2012,03,26,14,54,8.80
2012,03,26,14,55,8.70
2012,03,26,14,56,8.70
2012,03,26,14,57,8.70
2012,03,26,14,58,8.60
2012,03,26,14,59,8.60
2012,03,26,15,00,8.60
2012,03,26,15,01,8.60
2012,03,26,15,02,8.60
2012,03,26,15,03,8.60
2012,03,26,15,04,8.50
2012,03,26,15,05,8.60
2012,03,26,15,06,8.60
2012,03,26,15,07,8.60
2012,03,26,15,08,8.60
2012,03,26,15,09,8.60
2012,03,26,15,10,8.60
2012,03,26,15,11,8.60
2012,03,26,15,12,8.60
2012,03,26,15,13,8.60
2012,03,26,15,14,8.60
2012,03,26,15,15,8.60
2012,03,26,15,16,8.70
2012,03,26,15,17,8.70
2012,03,26,15,18,8.80
2012,03,26,15,19,8.90
2012,03,26,15,20,8.90
2012,03,26,15,21,8.90
2012,03,26,15,22,8.90
2012,03,26,15,23,8.90
2012,03,26,15,24,8.80
2012,03,26,15,25,8.80
2012,03,26,15,26,8.80
2012,03,26,15,27,8.80
2012,03,26,15,28,8.80
2012,03,26,15,29,8.80
2012,03,26,15,30,8.90
2012,03,26,15,31,8.90
2012,03,26,15,32,9.00
2012,03,26,15,33,9.00
2012,03,26,15,34,9.10
2012,03,26,15,35,9.10
2012,03,26,15,36,9.10
2012,03,26,15,37,9.10
2012,03,26,15,38,9.10
2012,03,26,15,39,9.00
2012,03,26,15,40,9.00
2012,03,26,15,41,8.90
2012,03,26,15,42,8.90
2012,03,26,15,43,8.80
2012,03,26,15,44,8.80
2012,03,26,15,45,8.90
2012,03,26,15,46,8.90
2012,03,26,15,47,8.90
2012,03,26,15,48,8.90
2012,03,26,15,49,8.90
2012,03,26,15,50,8.90
2012,03,26,15,51,8.90
2012,03,26,15,52,8.80
2012,03,26,15,53,8.80
2012,03,26,15,54,8.80
2012,03,26,15,55,8.80
2012,03,26,15,56,8.80
2012,03,26,15,57,8.80
2012,03,26,15,58,8.80
2012,03,26,15,59,8.70
2012,03,26,16,00,8.70
2012,03,26,16,01,8.70
2012,03,26,16,02,8.60
2012,03,26,16,03,8.60
2012,03,26,16,04,8.60
2012,03,26,16,05,8.60
2012,03,26,16,06,8.60
2012,03,26,16,07,8.60
2012,03,26,16,08,8.60
2012,03,26,16,09,8.60
2012,03,26,16,10,8.60
2012,03,26,16,11,8.60
2012,03,26,16,12,8.60
2012,03,26,16,13,8.60
2012,03,26,16,14,8.60
2012,03,26,16,15,8.70
2012,03,26,16,16,8.70
2012,03,26,16,17,8.70
2012,03,26,16,18,8.70
2012,03,26,16,19,8.70
2012,03,26,16,20,8.70
2012,03,26,16,21,8.70
2012,03,26,16,22,8.70
2012,03,26,16,23,8.70
2012,03,26,16,24,8.70
2012,03,26,16,25,8.70
2012,03,26,16,26,8.70
2012,03,26,16,27,8.70
2012,03,26,16,28,8.70
2012,03,26,16,29,8.70
2012,03,26,16,30,8.70
2012,03,26,16,31,8.80
2012,03,26,16,32,8.80
2012,03,26,16,33,8.80
2012,03,26,16,34,8.80
2012,03,26,16,35,8.90
2012,03,26,16,36,8.90
2012,03,26,16,37,8.90
2012,03,26,16,38,8.90
2012,03,26,16,39,8.90
2012,03,26,16,40,8.90
2012,03,26,16,41,8.90
2012,03,26,16,42,8.90
2012,03,26,16,43,8.90
2012,03,26,16,44,8.90
2012,03,26,16,45,8.90
2012,03,26,16,46,9.00
2012,03,26,16,47,9.00
2012,03,26,16,48,9.10
2012,03,26,16,49,9.10
2012,03,26,16,50,9.20
2012,03,26,16,51,9.20
2012,03,26,16,52,9.30
2012,03,26,16,53,9.30
2012,03,26,16,54,9.30
2012,03,26,16,55,9.30
2012,03,26,16,56,9.20
2012,03,26,16,57,9.20
2012,03,26,16,58,9.20
2012,03,26,16,59,9.20
2012,03,26,17,00,9.20
2012,03,26,17,01,9.20
2012,03,26,17,02,9.30
2012,03,26,17,03,9.30
2012,03,26,17,04,9.30
2012,03,26,17,05,9.30
2012,03,26,17,06,9.30
2012,03,26,17,07,9.30
2012,03,26,17,08,9.30
2012,03,26,17,09,9.30
2012,03,26,17,10,9.30
2012,03,26,17,11,9.30
2012,03,26,17,12,9.30
2012,03,26,17,13,9.30
2012,03,26,17,14,9.30
2012,03,26,17,15,9.30
2012,03,26,17,16,9.30
2012,03,26,17,17,9.30
2012,03,26,17,18,9.20
2012,03,26,17,19,9.20
2012,03,26,17,20,9.20
2012,03,26,17,21,9.20
2012,03,26,17,22,9.10
2012,03,26,17,23,9.10
2012,03,26,17,24,9.10
2012,03,26,17,25,9.10
2012,03,26,17,26,9.10
2012,03,26,17,27,9.10
2012,03,26,17,28,9.10
2012,03,26,17,29,9.10
2012,03,26,17,30,9.10
2012,03,26,17,31,9.10
2012,03,26,17,32,9.10
2012,03,26,17,33,9.20
2012,03,26,17,34,9.20
2012,03,26,17,35,9.20
2012,03,26,17,36,9.20
2012,03,26,17,37,9.20
2012,03,26,17,38,9.20
2012,03,26,17,39,9.20
2012,03,26,17,40,9.20
2012,03,26,17,41,9.20
2012,03,26,17,42,9.20
2012,03,26,17,43,9.20
2012,03,26,17,44,9.20
2012,03,26,17,45,9.20
2012,03,26,17,46,9.20
2012,03,26,17,47,9.30
2012,03,26,17,48,9.30
2012,03,26,17,49,9.30
2012,03,26,17,50,9.30
2012,03,26,17,51,9.30
2012,03,26,17,52,9.40
2012,03,26,17,53,9.40
2012,03,26,17,54,9.40
2012,03,26,17,55,9.40
2012,03,26,17,56,9.40
2012,03,26,17,57,9.40
2012,03,26,17,58,9.40
2012,03,26,17,59,9.40
2012,03,26,18,00,9.40
2012,03,26,18,01,9.40
2012,03,26,18,02,9.50
2012,03,26,18,03,9.50
2012,03,26,18,04,9.50
2012,03,26,18,05,9.50
2012,03,26,18,06,9.50
2012,03,26,18,07,9.50
2012,03,26,18,08,9.50
2012,03,26,18,09,9.50
2012,03,26,18,10,9.50
2012,03,26,18,11,9.50
2012,03,26,18,12,9.50
2012,03,26,18,13,9.50
2012,03,26,18,14,9.50
2012,03,26,18,15,9.50
2012,03,26,18,16,9.50
2012,03,26,18,17,9.50
2012,03,26,18,18,9.50
2012,03,26,18,19,9.50
2012,03,26,18,20,9.50
2012,03,26,18,21,9.50
2012,03,26,18,22,9.50
2012,03,26,18,23,9.50
2012,03,26,18,24,9.40
2012,03,26,18,25,9.40
2012,03,26,18,26,9.40
2012,03,26,18,27,9.40
2012,03,26,18,28,9.40
2012,03,26,18,29,9.40
2012,03,26,18,30,9.40
2012,03,26,18,31,9.40
2012,03,26,18,32,9.30
2012,03,26,18,33,9.30
2012,03,26,18,34,9.30
2012,03,26,18,35,9.30
2012,03,26,18,36,9.30
2012,03,26,18,37,9.30
2012,03,26,18,38,9.30
2012,03,26,18,39,9.30
2012,03,26,18,40,9.20
2012,03,26,18,41,9.20
2012,03,26,18,42,9.20
2012,03,26,18,43,9.10
2012,03,26,18,44,9.10
2012,03,26,18,45,9.10
2012,03,26,18,46,9.10
2012,03,26,18,47,9.00
2012,03,26,18,48,9.00
2012,03,26,18,49,9.00
2012,03,26,18,50,8.90
2012,03,26,18,51,8.90
2012,03,26,18,52,8.90
2012,03,26,18,53,8.90
2012,03,26,18,54,8.90
2012,03,26,18,55,8.90
2012,03,26,18,56,8.90
2012,03,26,18,57,8.80
2012,03,26,18,58,8.80
2012,03,26,18,59,8.80
2012,03,26,19,00,8.80
2012,03,26,19,01,8.80
2012,03,26,19,02,8.70
2012,03,26,19,03,8.70
2012,03,26,19,04,8.70
2012,03,26,19,05,8.70
2012,03,26,19,06,8.70
2012,03,26,19,07,8.70
2012,03,26,19,08,8.60
2012,03,26,19,09,8.60
2012,03,26,19,10,8.60
2012,03,26,19,11,8.60
2012,03,26,19,12,8.60
2012,03,26,19,13,8.60
2012,03,26,19,14,8.60
2012,03,26,19,15,8.50
2012,03,26,19,16,8.50
2012,03,26,19,17,8.50
2012,03,26,19,18,8.50
2012,03,26,19,19,8.50
2012,03,26,19,20,8.40
2012,03,26,19,21,8.40
2012,03,26,19,22,8.40
2012,03,26,19,23,8.40
2012,03,26,19,24,8.40
2012,03,26,19,25,8.40
2012,03,26,19,26,8.30
2012,03,26,19,27,8.30
2012,03,26,19,28,8.30
2012,03,26,19,29,8.30
2012,03,26,19,30,8.30
2012,03,26,19,31,8.30
2012,03,26,19,32,8.30
2012,03,26,19,33,8.30
2012,03,26,19,34,8.20
2012,03,26,19,35,8.20
2012,03,26,19,36,8.20
2012,03,26,19,37,8.20
2012,03,26,19,38,8.20
2012,03,26,19,39,8.20
2012,03,26,19,40,8.20
2012,03,26,19,41,8.20
2012,03,26,19,42,8.20
2012,03,26,19,43,8.20
2012,03,26,19,44,8.20
2012,03,26,19,45,8.20
2012,03,26,19,46,8.20
2012,03,26,19,47,8.20
